Regional Weather Roundup
Issued by NWS

Home | Current Version | Previous Version | Text Only | Print | Product List | Glossary On
Versions: 1 2 3 4 5 6 7 8 9 10 11 12 13 14 15 16 17 18 19 20 21 22 23 24 25 26 27 28 29 30 31 32 33 34 35 36 37 38 39 40 41 42 43 44 45 46 47 48 49 50
000
ASUS43 KOAX 270610
RWRNE

WEATHER ROUNDUP FOR NEBRASKA
NATIONAL WEATHER SERVICE OMAHA NE
100 AM CDT TUE JUN 27 2017

NOTES: SATELLITE DATA IS BEING USED TO AUGMENT CLOUD COVER ABOVE
       12000 FEET.
       "FAIR" INDICATES FEW OR NO CLOUDS BELOW 12,000 FEET WITH NO
       SIGNIFICANT WEATHER AND/OR OBSTRUCTIONS TO VISIBILITY.

  * THESE STATIONS DO NOT REPORT WEATHER SUCH AS RAIN...SNOW OR FOG.

NEZ001>004-019>022-054>056-270700-
NEBRASKA PANHANDLE

CITY           SKY/WX    TMP DP  RH WIND       PRES   REMARKS
SCOTTSBLUFF    CLEAR     65  46  50 SE12      30.08S
6HR MIN TEMP:  65; 6HR MAX TEMP:  83;

ALLIANCE       CLEAR     61  43  51 S16       30.08F
6HR MIN TEMP:  61; 6HR MAX TEMP:  80;

CHADRON        CLEAR     68  39  34 S25G38    29.98F
6HR MIN TEMP:  68; 6HR MAX TEMP:  82;

GORDON         FAIR      57  41  54 SE6       30.07F
6HR MIN TEMP:  57; 6HR MAX TEMP:  76;

KIMBALL        CLEAR     62  58  89 SE17      30.14F
SIDNEY         CLEAR     61  54  77 SE14      30.13F
6HR MIN TEMP:  61; 6HR MAX TEMP:  82;

$$

NEZ057>060-069>072-079>082-270700-
SOUTHWEST NEBRASKA

CITY           SKY/WX    TMP DP  RH WIND       PRES   REMARKS
NORTH PLATTE   CLEAR     55  51  86 E8        30.13S
6HR MIN TEMP:  54; 6HR MAX TEMP:  79;

IMPERIAL       CLEAR     61  56  83 SE8       30.12F
6HR MIN TEMP:  60; 6HR MAX TEMP:  79;

LEXINGTON      PTCLDY    59  52  78 SE7       30.14R
MCCOOK         CLEAR     62  57  83 E9        30.12S
6HR MIN TEMP:  62; 6HR MAX TEMP:  78;

OGALLALA       CLEAR     64  49  59 SE10      30.12F
$$

NEZ005>010-023>029-035>040-094-270700-
NORTH CENTRAL NEBRASKA

CITY           SKY/WX    TMP DP  RH WIND       PRES   REMARKS
VALENTINE      CLEAR     60  39  45 SE9       30.09F
6HR MIN TEMP:  59; 6HR MAX TEMP:  77;

AINSWORTH      CLEAR     56  43  62 SE9       30.11S
BROKEN BOW     CLEAR     55  47  74 SE5       30.13F
6HR MIN TEMP:  55; 6HR MAX TEMP:  75;

O`NEILL        CLEAR     56  45  65 SE7       30.13F
ORD            CLEAR     52  45  77 E3        30.13S
6HR MIN TEMP:  52; 6HR MAX TEMP:  76;

THEDFORD       CLEAR     57  44  63 SE8       30.13S
$$

NEZ041-046>049-061>064-073>077-083>087-270700-
SOUTH CENTRAL NEBRASKA

CITY           SKY/WX    TMP DP  RH WIND       PRES   REMARKS
GRAND ISLAND   CLEAR     57  52  83 E6        30.15S
6HR MIN TEMP:  56; 6HR MAX TEMP:  75;

AURORA         CLEAR     55  51  87 SE6       30.15S
HASTINGS       CLEAR     62  57  83 SE10      30.15F
6HR MIN TEMP:  62; 6HR MAX TEMP:  77;

HEBRON         FOG       61  60  97 E3        30.15S VSB 1/4
HOLDREGE       PTCLDY    60  58  92 SE8       30.14S
KEARNEY *      CLEAR     57  54  88 SE5       30.15S
YORK           CLEAR     59  50  72 SE6       30.16S
$$

NEZ011>018-030>034-042>045-270700-
NORTHEAST NEBRASKA

CITY           SKY/WX    TMP DP  RH WIND       PRES   REMARKS
NORFOLK        CLEAR     52  44  74 SE6       30.14S
6HR MIN TEMP:  52; 6HR MAX TEMP:  72;

ALBION         CLEAR     53  44  72 CALM      30.15S
BLAIR          CLEAR     58  47  67 E5        30.15S
FREMONT        CLEAR     58  50  73 CALM      30.15F
TEKAMAH        CLEAR     51  43  74 CALM      30.15R
6HR MIN TEMP:  51; 6HR MAX TEMP:  75;

WAYNE          CLEAR     50  46  87 CALM      30.15S
$$

NEZ050>053-065>068-078-088>093-270700-
SOUTHEAST NEBRASKA

CITY           SKY/WX    TMP DP  RH WIND       PRES   REMARKS
LINCOLN        CLEAR     58  52  80 CALM      30.15S
6HR MIN TEMP:  57; 6HR MAX TEMP:  75;

OMAHA EPPLEY   CLEAR     59  49  69 CALM      30.15R
6HR MIN TEMP:  57; 6HR MAX TEMP:  75;

BEATRICE       CLEAR     59  59  99 CALM      30.15S
FALLS CITY     FOG       57  57 100 CALM      30.14S VSB 1
6HR MIN TEMP:  58; 6HR MAX TEMP:  70;

NEBRASKA CITY  CLEAR     60  60 100 CALM      30.15S
PLATTSMOUTH    CLEAR     60  52  74 E7        30.15S
$$

NEZ044-045-051>053-067-270700-
OMAHA AREA

CITY           SKY/WX    TMP DP  RH WIND       PRES   REMARKS
OMAHA EPPLEY   CLEAR     59  49  69 CALM      30.15R
6HR MIN TEMP:  57; 6HR MAX TEMP:  75;

BLAIR          CLEAR     58  47  67 E5        30.15S
FREMONT        CLEAR     58  50  73 CALM      30.15F
MILLARD        CLEAR     59  54  82 CALM      30.15S
OFFUTT AFB     CLEAR     54  51  89 CALM      30.14S
PLATTSMOUTH    CLEAR     60  52  74 E7        30.15S
WAHOO          FAIR      57  47  71 CALM      30.15S
$$



USA.gov is the U.S. government's official web portal to all federal, state and local government web resources and services.